This is the latest recevied weather packets stored in our database for station/object KE0PRS. If no packets are shown the sender has not sent any weather packets the latest 10 day(s).
| Time | Temp. | Humidity | Pressure | Rain* | Wind** | Luminosity | Snow |
|---|---|---|---|---|---|---|---|
| 1787760222 | 27.78° C | 69% | 1021.6 hPa | 0 mm | - | 519 W/m² | - |
| 1787759918 | 27.78° C | 70% | 1021.5 hPa | 0 mm | - | 502 W/m² | - |
| 1787759613 | 27.78° C | 70% | 1021.8 hPa | 0 mm | - | 489 W/m² | - |
| 1787759309 | 27.78° C | 70% | 1021.6 hPa | 0 mm | - | 478 W/m² | - |
| 1787759004 | 27.78° C | 72% | 1021.5 hPa | 0 mm | - | 452 W/m² | - |
| 1787758704 | 27.22° C | 74% | 1021.5 hPa | 0 mm | - | 451 W/m² | - |
| 1787758399 | 26.67° C | 75% | 1021.6 hPa | 0 mm | - | 440 W/m² | - |
| 1787758098 | 26.67° C | 77% | 1021.5 hPa | 0 mm | - | 427 W/m² | - |
| 1787757795 | 26.11° C | 77% | 1021.4 hPa | 0 mm | - | 408 W/m² | - |
| 1787757495 | 26.67° C | 77% | 1021.5 hPa | 0 mm | - | 397 W/m² | - |
| 1787757189 | 26.11° C | 79% | 1021.4 hPa | 0 mm | - | 380 W/m² | - |
| 1787756888 | 26.11° C | 80% | 1021.5 hPa | 0 mm | - | 364 W/m² | - |
| 1787756585 | 25.56° C | 81% | 1021.3 hPa | 0 mm | - | 351 W/m² | - |
| 1787756283 | 25° C | 82% | 1021.6 hPa | 0 mm | - | 333 W/m² | - |
| 1787755978 | 25° C | 81% | 1021.4 hPa | 0 mm | - | 326 W/m² | - |
| 1787755677 | 25° C | 82% | 1021.3 hPa | 0 mm | - | 265 W/m² | - |
| 1787755373 | 25° C | 83% | 1021.3 hPa | 0 mm | - | 252 W/m² | - |
| 1787755072 | 25° C | 83% | 1021.1 hPa | 0 mm | - | 231 W/m² | - |
| 1787754766 | 24.44° C | 85% | 1021.2 hPa | 0 mm | - | 203 W/m² | - |
| 1787754464 | 24.44° C | 86% | 1021 hPa | 0 mm | - | 110 W/m² | - |
| 1787754159 | 23.89° C | 88% | 1021.2 hPa | 0 mm | - | 111 W/m² | - |
| 1787753854 | 23.33° C | 90% | 1021.1 hPa | 0 mm | - | 161 W/m² | - |
| 1787753553 | 23.33° C | 93% | 1021.3 hPa | 0 mm | - | 148 W/m² | - |
| 1787753251 | 22.78° C | 95% | 1021.2 hPa | 0 mm | - | 139 W/m² | - |
| 1787752947 | 22.22° C | 94% | 1021 hPa | 0 mm | - | 128 W/m² | - |
* Rain latest hour (hover to see other rain measurements)
** Current wind speed in m/s (hover to see current wind gust speed)